Location: Taupo
(38.6830°S, 176.0830°E)
Time: 02:32:28
(UTC+13:00)

USA 186 - Pass Details

Date: 24 January 2019
Orbit: 262 x 443 km, 96.9° (Epoch: 04 October)

Event Time Altitude Azimuth Distance (km) Brightness Sun altitude
Rises 21:24:24 0° 163° (SSE) 2,246 5.7 -8.8°
Reaches altitude 10° 21:26:28 10° 157° (SSE) 1,357 4.5 -9.2°
Maximum altitude 21:29:16 46° 82° (E) 479 1.6 -9.6°
Drops below altitude 10° 21:31:51 10° 6° (N) 1,254 3.8 -10.0°
Enters shadow 21:32:28 - 3° (N) 1,518 4.2 -10.1°
